Alexandria Esle, LA

12:56 PM CDT on May 21, 2018 (GMT -0500)
Alexandria Esler Regional

Weather History for KESF - February, 2013

Change the Weather History Date:

Saturday, February 9, 2013

  Actual Average Record
Temperature  
Mean Temperature 54 °F -  
Max Temperature 64 °F 59 °F 81 °F (1999)
Min Temperature 43 °F 33 °F 19 °F (1971)
Degree Days  
Heating Degree Days 12    
Growing Degree Days 4 (Base 50)    
Moisture  
Dew Point 48 °F    
Average Humidity 76    
Maximum Humidity 89    
Minimum Humidity 59    
Precipitation  
Precipitation 0.00 in - - ()
Sea Level Pressure  
Sea Level Pressure 30.12 in    
Wind  
Wind Speed 5 mph (ESE)    
Max Wind Speed 10 mph    
Max Gust Speed -    
Visibility 10 miles    
Events      
Averages and records for this station are not official NWS values.
T = Trace of Precipitation, MM = Missing Value Source: NWS Daily Summary

Daily Weather History Graph

Daily Weather History Graph

Search for Another Location

Airport or City:

Astronomy

Feb. 09, 2013 Rise Set
Actual Time 6:55 AM CST 5:51 PM CST
Civil Twilight 6:30 AM CST 6:16 PM CST
Nautical Twilight 6:01 AM CST 6:45 PM CST
Astronomical Twilight 5:33 AM CST 7:13 PM CST
Moon 6:08 AM CST (2/9) 5:32 PM CST (2/9)
Length of Visible Light 11h 45m
Length of Day
10h 55m
Waning Crescent, 0% of the Moon is Illuminated
Feb 9
Waning Crescent
Feb 10
New
Feb 17
First Quarter
Feb 25
Full
Mar 4
Last Quarter

Hourly Weather History & Observations

Time (CST) Temp. Windchill Dew Point Humidity Pressure Visibility Wind Dir Wind Speed Gust Speed Precip Events Conditions
12:45 AM 46.4 °F 45.2 °F 41.0 °F 81% 30.18 in 10.0 mi ENE 3.5 mph - N/A   Scattered Clouds
12:53 AM 46.9 °F - 41.0 °F 80% 30.19 in 10.0 mi Calm Calm - N/A   Partly Cloudy
1:10 AM 46.4 °F 44.3 °F 41.0 °F 81% 30.20 in 10.0 mi NE 4.6 mph - N/A   Mostly Cloudy
1:53 AM 46.9 °F - 42.1 °F 83% 30.19 in 10.0 mi NE 4.6 mph - N/A   Mostly Cloudy
2:09 AM 46.4 °F 44.3 °F 41.0 °F 81% 30.18 in 10.0 mi ENE 4.6 mph - N/A   Scattered Clouds
2:53 AM 45.0 °F 41.8 °F 41.0 °F 86% 30.17 in 10.0 mi ENE 5.8 mph - N/A   Clear
3:53 AM 45.0 °F 42.6 °F 39.9 °F 82% 30.17 in 9.0 mi East 4.6 mph - N/A   Clear
4:53 AM 43.0 °F - 39.9 °F 89% 30.18 in 7.0 mi Calm Calm - N/A   Clear
5:53 AM 44.1 °F 40.8 °F 39.9 °F 85% 30.18 in 8.0 mi ENE 5.8 mph - N/A   Mostly Cloudy
6:53 AM 43.0 °F 40.3 °F 39.9 °F 89% 30.19 in 9.0 mi ENE 4.6 mph - N/A   Partly Cloudy
7:53 AM 45.0 °F 42.6 °F 41.0 °F 86% 30.21 in 10.0 mi ENE 4.6 mph - N/A   Overcast
8:42 AM 46.4 °F 44.3 °F 42.8 °F 87% 30.22 in 10.0 mi East 4.6 mph - N/A   Overcast
8:49 AM 46.4 °F 43.5 °F 42.8 °F 87% 30.22 in 10.0 mi ENE 5.8 mph - N/A   Overcast
8:53 AM 48.0 °F - 42.1 °F 80% 30.21 in 10.0 mi East 5.8 mph - N/A   Overcast
9:53 AM 51.1 °F - 44.1 °F 77% 30.21 in 10.0 mi East 8.1 mph - N/A   Mostly Cloudy
10:53 AM 54.0 °F - 45.0 °F 72% 30.20 in 10.0 mi ESE 10.4 mph - N/A   Overcast
11:53 AM 59.0 °F - 46.9 °F 64% 30.17 in 10.0 mi Variable 4.6 mph - N/A   Mostly Cloudy
12:49 PM 60.8 °F - 48.2 °F 63% 30.13 in 10.0 mi East 8.1 mph - N/A   Mostly Cloudy
12:53 PM 61.0 °F - 48.9 °F 64% 30.13 in 10.0 mi ESE 8.1 mph - N/A   Mostly Cloudy
1:01 PM 62.6 °F - 48.2 °F 59% 30.12 in 10.0 mi SE 9.2 mph - N/A   Mostly Cloudy
1:11 PM 62.6 °F - 50.0 °F 63% 30.12 in 10.0 mi East 5.8 mph - N/A   Overcast
1:53 PM 63.0 °F - 50.0 °F 63% 30.10 in 10.0 mi SE 5.8 mph - N/A   Overcast
2:53 PM 64.0 °F - 51.1 °F 63% 30.07 in 10.0 mi SE 4.6 mph - N/A   Overcast
3:53 PM 64.0 °F - 52.0 °F 65% 30.06 in 10.0 mi SSE 6.9 mph - N/A   Mostly Cloudy
4:14 PM 64.4 °F - 51.8 °F 64% 30.05 in 10.0 mi ESE 5.8 mph - N/A   Mostly Cloudy
4:53 PM 64.0 °F - 52.0 °F 65% 30.05 in 10.0 mi ESE 6.9 mph - N/A   Overcast
5:10 PM 64.4 °F - 53.6 °F 68% 30.05 in 10.0 mi ESE 4.6 mph - N/A   Overcast
5:53 PM 63.0 °F - 53.1 °F 70% 30.04 in 10.0 mi ESE 4.6 mph - N/A   Overcast
6:53 PM 62.1 °F - 54.0 °F 75% 30.04 in 10.0 mi SE 5.8 mph - N/A   Overcast
7:53 PM 61.0 °F - 54.0 °F 78% 30.01 in 10.0 mi SE 9.2 mph - N/A   Clear
8:53 PM 60.1 °F - 54.0 °F 80% 30.01 in 10.0 mi SE 10.4 mph - N/A   Clear
9:53 PM 61.0 °F - 55.0 °F 81% 30.00 in 10.0 mi SE 10.4 mph - N/A   Scattered Clouds
10:02 PM 60.8 °F - 55.4 °F 82% 30.00 in 10.0 mi SSE 9.2 mph - N/A   Mostly Cloudy
10:27 PM 62.6 °F - 55.4 °F 77% 29.99 in 10.0 mi SSE 10.4 mph - N/A   Overcast
10:53 PM 62.1 °F - 55.9 °F 80% 30.00 in 10.0 mi SSE 6.9 mph - N/A   Overcast
11:53 PM 62.1 °F - 57.0 °F 84% 29.99 in 10.0 mi SE 5.8 mph - N/A   Overcast